Location: Castillon
(43.0896°N, 0.2156°E)
Time: 19:40:37
(UTC+00:00)

USA 215 - Pass Details

Date: 16 June 2021
Orbit: 1100 x 1107 km, 123.0° (Epoch: 01 August)

Event Time Altitude Azimuth Distance (km) Brightness Sun altitude
Rises 23:20:48 0° 48° (NE) 3,922 6.6 -22.9°
Reaches altitude 10° 23:23:19 10° 44° (NE) 2,963 6.0 -23.0°
Maximum altitude 23:29:40 57° 328° (NNW) 1,286 3.8 -23.2°
Drops below altitude 10° 23:36:01 10° 252° (WSW) 2,955 5.4 -23.3°
Sets 23:38:32 0° 249° (WSW) 3,911 6.0 -23.3°
